Williston, ND

3:39 PM CDT on April 20, 2018 (GMT -0500)
Sloulin International

Weather History for KISN - December, 2012

Change the Weather History Date:

Saturday, December 22, 2012

  Actual Average Record
Temperature  
Mean Temperature 6 °F 12 °F  
Max Temperature 10 °F 23 °F 55 °F (1954)
Min Temperature 2 °F 1 °F -38 °F (1983)
Degree Days  
Heating Degree Days 59 53  
Month to date heating degree days 1040 1101  
Since 1 July heating degree days 3200 3263  
Cooling Degree Days 0 0  
Month to date cooling degree days 0 0  
Year to date cooling degree days 532 456  
Moisture  
Dew Point 1 °F    
Average Humidity 84    
Maximum Humidity 95    
Minimum Humidity 73    
Precipitation  
Precipitation T in 0.02 in 0.38 in (1926)
Month to date precipitation 0.41 0.43  
Year to date precipitation 13.04 14.18  
Snow  
Snow T in - - ()
Month to date snowfall 4.0  
Snow Depth 4.00 in    
Sea Level Pressure  
Sea Level Pressure 30.24 in    
Wind  
Wind Speed 10 mph (NNE)    
Max Wind Speed 22 mph    
Max Gust Speed 26 mph    
Visibility 9 miles    
Events Snow    
T = Trace of Precipitation, MM = Missing Value Source: NWS Daily Summary

Daily Weather History Graph

Daily Weather History Graph

Search for Another Location

Airport or City:

Astronomy

Dec. 22, 2012 Rise Set
Actual Time 8:43 AM CST 5:03 PM CST
Civil Twilight 8:06 AM CST 5:40 PM CST
Nautical Twilight 7:26 AM CST 6:20 PM CST
Astronomical Twilight 6:48 AM CST 6:58 PM CST
Moon 1:35 PM CST (12/22) 3:15 AM CST (12/22)
Length of Visible Light 9h 34m
Length of Day
8h 20m
Waxing Gibbous, 74% of the Moon is Illuminated
Dec 22
Waxing Gibbous
Dec 28
Full
Jan 4
Last Quarter
Jan 11
New
Jan 18
First Quarter

Hourly Weather History & Observations

Time (CST) Temp. Windchill Dew Point Humidity Pressure Visibility Wind Dir Wind Speed Gust Speed Precip Events Conditions
12:52 AM 9.0 °F -6.6 °F 5.0 °F 84% 30.18 in 10.0 mi North 12.7 mph - N/A   Clear
1:52 AM 8.1 °F -7.7 °F 3.9 °F 83% 30.21 in 10.0 mi North 12.7 mph - N/A   Clear
2:52 AM 7.0 °F -10.4 °F 3.0 °F 84% 30.23 in 10.0 mi North 15.0 mph - N/A   Mostly Cloudy
3:52 AM 7.0 °F -11.0 °F 3.0 °F 84% 30.24 in 10.0 mi North 16.1 mph - N/A   Mostly Cloudy
4:52 AM 7.0 °F -11.0 °F 3.0 °F 84% 30.27 in 10.0 mi North 16.1 mph - N/A   Mostly Cloudy
5:52 AM 6.8 °F -8.6 °F 1.4 °F 79% 30.15 in 10.0 mi North 11.5 mph - N/A   Scattered Clouds
6:20 AM 6.8 °F -11.8 °F 1.4 °F 79% 30.16 in 10.0 mi North 17.3 mph - N/A   Mostly Cloudy
6:52 AM 7.0 °F -9.1 °F 1.9 °F 80% 30.29 in 10.0 mi North 12.7 mph - N/A   Mostly Cloudy
7:52 AM 6.1 °F -6.8 °F 1.9 °F 83% 30.31 in 10.0 mi North 8.1 mph - N/A   Partly Cloudy
8:52 AM 5.0 °F -9.1 °F 1.0 °F 84% 30.31 in 10.0 mi North 9.2 mph - N/A   Clear
9:52 AM 5.0 °F -6.9 °F 1.0 °F 84% 30.32 in 10.0 mi North 6.9 mph - N/A   Clear
10:52 AM 6.1 °F -6.8 °F 1.9 °F 83% 30.33 in 10.0 mi NNW 8.1 mph - N/A   Clear
11:10 AM 6.8 °F -5.9 °F 1.4 °F 79% 30.19 in 10.0 mi North 8.1 mph - N/A   Partly Cloudy
11:23 AM 6.8 °F -3.5 °F 1.4 °F 79% 30.19 in 7.0 mi North 5.8 mph - N/A   Mostly Cloudy
11:52 AM 7.0 °F -8.3 °F 1.9 °F 80% 30.33 in 7.0 mi North 11.5 mph - N/A   Overcast
12:52 PM 7.0 °F -9.8 °F 1.9 °F 80% 30.34 in 6.0 mi North 13.8 mph - 0.00 in Snow Light Snow
1:10 PM 8.6 °F -6.3 °F 3.2 °F 79% 30.19 in 5.0 mi North 11.5 mph - 0.00 in Snow Light Snow
1:24 PM 8.6 °F -6.3 °F 3.2 °F 79% 30.18 in 10.0 mi North 11.5 mph - 0.00 in   Mostly Cloudy
1:52 PM 8.1 °F -6.2 °F 3.0 °F 80% 30.32 in 9.0 mi North 10.4 mph - 0.00 in   Overcast
2:52 PM 8.1 °F -6.2 °F 3.0 °F 80% 30.29 in 4.0 mi NNE 10.4 mph - 0.00 in   Haze
3:52 PM 8.1 °F -4.3 °F 1.9 °F 76% 30.29 in 9.0 mi NNE 8.1 mph - N/A   Overcast
4:17 PM 6.8 °F -5.9 °F 1.4 °F 79% 30.15 in 10.0 mi NNE 8.1 mph - N/A   Scattered Clouds
4:52 PM 6.1 °F -6.8 °F 1.0 °F 80% 30.31 in 10.0 mi North 8.1 mph - N/A   Scattered Clouds
4:58 PM 6.8 °F -5.9 °F 1.4 °F 79% 30.16 in 10.0 mi NNE 8.1 mph - N/A   Mostly Cloudy
5:03 PM 6.8 °F -4.8 °F 1.4 °F 79% 30.17 in 10.0 mi NNE 6.9 mph - N/A   Mostly Cloudy
5:44 PM 5.0 °F -5.6 °F 1.4 °F 85% 30.15 in 10.0 mi NE 5.8 mph - N/A   Scattered Clouds
5:52 PM 3.9 °F -8.2 °F 1.0 °F 88% 30.30 in 10.0 mi NE 6.9 mph - N/A   Partly Cloudy
6:52 PM 1.9 °F -10.6 °F -0.9 °F 88% 30.28 in 10.0 mi NE 6.9 mph - N/A   Clear
7:52 PM 1.4 °F -12.5 °F -2.2 °F 85% 30.13 in 10.0 mi ENE 8.1 mph - N/A   Clear
8:23 PM 1.4 °F -6.2 °F -0.4 °F 92% 30.15 in 10.0 mi ESE 3.5 mph - N/A   Mostly Cloudy
8:52 PM 3.0 °F - -0.9 °F 84% 30.31 in 10.0 mi Calm Calm - N/A   Overcast
9:37 PM 3.2 °F -6.2 °F -0.4 °F 85% 30.15 in 10.0 mi ENE 4.6 mph - N/A   Scattered Clouds
9:43 PM 3.2 °F -9.1 °F -0.4 °F 85% 30.14 in 10.0 mi NE 6.9 mph - N/A   Mostly Cloudy
9:52 PM 3.0 °F -10.5 °F -0.9 °F 84% 30.29 in 10.0 mi NE 8.1 mph - N/A   Mostly Cloudy
10:52 PM 3.9 °F -10.4 °F -0.0 °F 84% 30.27 in 10.0 mi ENE 9.2 mph - N/A   Overcast
11:39 PM 3.2 °F -11.3 °F 1.4 °F 92% 30.12 in 7.0 mi East 9.2 mph - N/A   Overcast
11:52 PM 3.9 °F -13.0 °F 1.0 °F 88% 30.27 in 10.0 mi East 12.7 mph - N/A   Mostly Cloudy